sat.trackr.live / text

‹ back to catalog

STARLINK-32653

NORAD 62199 · 2024-229H

PAYLOAD ACTIVE UNKNOWN

§ Identity

Operator
Country
US
Launch date
2024-12-04
Launch site
AFETR
Launch vehicle
Mass (kg)
RCS (m²)

Purposes: comms

External: N2YO · Heavens-Above · Gunter

§ Orbital elements

Epoch: 2026-05-25T03:33:23.338656Z

Period
94.27 min
Inclination
42.9988°
Eccentricity
0.0001290
Mean motion
15.27582729 rev/d
Perigee alt
482.2 km
Apogee alt
483.9 km
Semi-major
6,861.2 km
B*
4.5601e-4
RAAN
192.0399°
Arg perigee
273.8227°
Mean anomaly
86.2477°
Rev number
8,233

§ Raw data

STARLINK-326531 62199U 24229H   26145.14818679  .00012308  00000+0  45601-3 0  99902 62199  42.9988 192.0399 0001290 273.8227  86.2477 15.27582729 82333

JSON: /api/v1/satellites/62199 · /tle

For live sub-satellite position, see the globe view (requires WebGL).

§ Visibility from observer

Set your observer location to see the next 7 days of passes ≥ 10°. The values pass through the URL so the page stays shareable.

No JS? Fill the form by hand. The geolocation button needs JavaScript.